{"data":{"norad_id":55470,"intl_designator":"2023-015X","name":"STARLINK-5708","alt_names":[],"object_type":"PAYLOAD","status":"ACTIVE","operator":null,"country":"US","launch_date":"2023-02-02","launch_site_code":"AFETR","launch_vehicle":null,"mission":null,"orbit_class":"UNKNOWN","rcs_meters":null,"size_class":null,"mass_kg":null,"dimensions":null,"purposes":["comms"],"wikipedia_slug":null,"has_3d_model":false,"image_url":null,"decayed_at":null,"tle_current":{"epoch":"2026-05-25T00:16:53.960160Z","epoch_age_seconds":67367,"freshness":"FRESH","line1":"1 55470U 23015X   26145.01173565 -.00000074  00000+0  68349-5 0  9994","line2":"2 55470  43.0009 257.7635 0000887 280.0502  80.0249 15.27577957182395","mean_motion":15.27577957,"eccentricity":8.87e-5,"inclination_deg":43.0009,"raan_deg":257.7635,"arg_perigee_deg":280.0502,"mean_anomaly_deg":80.0249,"bstar":6.8349e-6,"rev_number":18239,"period_min":94.266874787065,"perigee_km":482.4466257741,"apogee_km":483.66380127278,"semimajor_km":6861.1922135234,"source":"CELESTRAK","updated_at":"2026-05-25T13:38:17.806983Z"}}}